• In Czech Republic
  • List of Countries
  • For 7 days
  • Water Temperature
  • Satellite Maps
  • Weather Map
  • Weather Widgets
  • user-avatar
    Login

    Hourly Weather Aba-el-Baul

    Today, 19 February, Monday

    Time Temperature Precipitation Wind Pressure Humidity
    00:00 +22°C° 0 mm 7 mps 754 mmHg 62%
    01:00 +21°C° 0 mm 7 mps 754 mmHg 65%
    02:00 +21°C° 0 mm 6 mps 754 mmHg 67%
    03:00 +21°C° 0 mm 6 mps 754 mmHg 69%
    04:00 +20°C° 0 mm 6 mps 754 mmHg 69%
    05:00 +20°C° 0 mm 6 mps 755 mmHg 70%
    06:00 +20°C° 0 mm 6 mps 755 mmHg 71%
    07:00 +21°C° 0 mm 6 mps 755 mmHg 60%
    08:00 +22°C° 0 mm 6 mps 756 mmHg 49%
    09:00 +24°C° 0 mm 7 mps 756 mmHg 38%
    10:00 +26°C° 0 mm 7 mps 756 mmHg 33%
    11:00 +27°C° 0 mm 7 mps 756 mmHg 29%
    12:00 +28°C° 0 mm 7 mps 756 mmHg 24%
    13:00 +28°C° 0 mm 7 mps 756 mmHg 24%
    14:00 +27°C° 0 mm 7 mps 755 mmHg 25%
    15:00 +27°C° 0 mm 7 mps 755 mmHg 25%
    16:00 +26°C° 0 mm 7 mps 756 mmHg 28%
    17:00 +24°C° 0 mm 6 mps 756 mmHg 30%
    18:00 +23°C° 0 mm 5 mps 756 mmHg 33%
    19:00 +22°C° 0 mm 5 mps 756 mmHg 36%
    20:00 +21°C° 0 mm 5 mps 757 mmHg 39%
    21:00 +21°C° 0 mm 4 mps 757 mmHg 42%
    22:00 +20°C° 0 mm 4 mps 757 mmHg 44%
    23:00 +20°C° 0 mm 4 mps 757 mmHg 46%

    Tomorrow, 20 February, Tuesday

    Time Temperature Precipitation Wind Pressure Humidity
    00:00 +19°C° 0 mm 3 mps 757 mmHg 48%
    01:00 +19°C° 0 mm 3 mps 756 mmHg 49%
    02:00 +19°C° 0 mm 3 mps 756 mmHg 50%
    03:00 +18°C° 0 mm 3 mps 756 mmHg 51%
    04:00 +18°C° 0 mm 3 mps 756 mmHg 52%
    05:00 +18°C° 0 mm 3 mps 756 mmHg 54%
    06:00 +18°C° 0 mm 3 mps 757 mmHg 55%
    07:00 +19°C° 0 mm 4 mps 757 mmHg 49%
    08:00 +21°C° 0 mm 5 mps 757 mmHg 42%
    09:00 +23°C° 0 mm 5 mps 758 mmHg 36%
    10:00 +25°C° 0 mm 5 mps 758 mmHg 33%
    11:00 +26°C° 0 mm 5 mps 757 mmHg 29%
    12:00 +27°C° 0 mm 5 mps 757 mmHg 26%
    13:00 +27°C° 0 mm 5 mps 757 mmHg 26%
    14:00 +27°C° 0 mm 5 mps 756 mmHg 26%
    15:00 +27°C° 0 mm 5 mps 756 mmHg 26%
    16:00 +26°C° 0 mm 5 mps 756 mmHg 29%
    17:00 +25°C° 0 mm 4 mps 756 mmHg 33%
    18:00 +22°C° 0 mm 4 mps 756 mmHg 37%
    19:00 +22°C° 0 mm 4 mps 756 mmHg 40%
    20:00 +21°C° 0 mm 4 mps 756 mmHg 44%
    21:00 +20°C° 0 mm 3 mps 756 mmHg 48%
    22:00 +20°C° 0 mm 3 mps 756 mmHg 50%
    23:00 +19°C° 0 mm 3 mps 756 mmHg 52%

    Day after tomorrow, 21 February, Wednesday

    Time Temperature Precipitation Wind Pressure Humidity
    00:00 +19°C° 0 mm 3 mps 756 mmHg 55%
    01:00 +19°C° 0 mm 3 mps 755 mmHg 56%
    02:00 +18°C° 0 mm 3 mps 755 mmHg 57%
    03:00 +18°C° 0 mm 3 mps 755 mmHg 58%
    04:00 +18°C° 0 mm 3 mps 755 mmHg 59%
    05:00 +18°C° 0 mm 3 mps 755 mmHg 59%
    06:00 +18°C° 0 mm 3 mps 756 mmHg 59%
    07:00 +19°C° 0 mm 3 mps 756 mmHg 53%
    08:00 +21°C° 0 mm 3 mps 756 mmHg 47%
    09:00 +22°C° 0 mm 3 mps 757 mmHg 41%
    10:00 +24°C° 0 mm 2 mps 756 mmHg 36%
    11:00 +26°C° 0 mm 2 mps 756 mmHg 32%
    12:00 +27°C° 0 mm 2 mps 755 mmHg 27%
    13:00 +27°C° 0 mm 3 mps 755 mmHg 27%
    14:00 +28°C° 0 mm 3 mps 754 mmHg 27%
    15:00 +28°C° 0 mm 4 mps 753 mmHg 27%
    16:00 +27°C° 0 mm 4 mps 754 mmHg 33%
    17:00 +26°C° 0 mm 4 mps 754 mmHg 40%
    18:00 +23°C° 0 mm 4 mps 754 mmHg 47%
    19:00 +24°C° 0 mm 3 mps 754 mmHg 49%
    20:00 +24°C° 0 mm 2 mps 755 mmHg 52%
    21:00 +23°C° 0 mm 2 mps 755 mmHg 55%
    22:00 +23°C° 0 mm 2 mps 755 mmHg 56%
    23:00 +23°C° 0 mm 2 mps 755 mmHg 57%

    22 February, Thursday

    Time Temperature Precipitation Wind Pressure Humidity
    00:00 +23°C° 0 mm 1 mps 754 mmHg 58%
    01:00 +21°C° 0 mm 2 mps 754 mmHg 57%
    02:00 +21°C° 0 mm 3 mps 753 mmHg 56%
    03:00 +21°C° 0 mm 3 mps 753 mmHg 55%
    04:00 +21°C° 0 mm 3 mps 753 mmHg 57%
    05:00 +21°C° 0 mm 3 mps 753 mmHg 59%
    06:00 +20°C° 0 mm 3 mps 754 mmHg 61%
    07:00 +22°C° 0 mm 4 mps 754 mmHg 56%
    08:00 +23°C° 0 mm 4 mps 755 mmHg 52%
    09:00 +25°C° 0 mm 4 mps 755 mmHg 47%
    10:00 +26°C° 0 mm 4 mps 755 mmHg 44%
    11:00 +27°C° 0 mm 5 mps 754 mmHg 40%
    12:00 +28°C° 0 mm 5 mps 754 mmHg 36%
    13:00 +28°C° 0.1 mm 5 mps 753 mmHg 36%
    14:00 +28°C° 0.1 mm 5 mps 753 mmHg 36%
    15:00 +28°C° 0.1 mm 5 mps 752 mmHg 36%
    16:00 +28°C° 0.1 mm 5 mps 752 mmHg 40%
    17:00 +27°C° 0.1 mm 5 mps 753 mmHg 44%
    18:00 +26°C° 0.1 mm 5 mps 753 mmHg 47%
    19:00 +25°C° 0 mm 4 mps 753 mmHg 48%
    20:00 +25°C° 0 mm 4 mps 753 mmHg 49%
    21:00 +25°C° 0 mm 3 mps 753 mmHg 50%
    22:00 +25°C° 0 mm 4 mps 753 mmHg 51%
    23:00 +23°C° 0 mm 4 mps 753 mmHg 53%

    23 February, Friday

    Time Temperature Precipitation Wind Pressure Humidity
    00:00 +23°C° 0 mm 4 mps 752 mmHg 54%
    01:00 +23°C° 0 mm 4 mps 752 mmHg 56%
    02:00 +24°C° 0 mm 3 mps 752 mmHg 58%
    03:00 +22°C° 0 mm 3 mps 752 mmHg 60%
    04:00 +22°C° 0 mm 3 mps 752 mmHg 60%
    05:00 +23°C° 0 mm 2 mps 753 mmHg 61%
    06:00 +21°C° 0 mm 2 mps 753 mmHg 62%
    07:00 +24°C° 0 mm 2 mps 754 mmHg 56%
    08:00 +25°C° 0 mm 2 mps 754 mmHg 50%
    09:00 +27°C° 0 mm 2 mps 755 mmHg 44%
    10:00 +29°C° 0 mm 2 mps 754 mmHg 38%
    11:00 +30°C° 0 mm 3 mps 753 mmHg 32%
    12:00 +33°C° 0 mm 4 mps 753 mmHg 26%
    13:00 +33°C° 0 mm 4 mps 752 mmHg 25%
    14:00 +33°C° 0 mm 4 mps 751 mmHg 24%
    15:00 +34°C° 0 mm 4 mps 751 mmHg 23%
    16:00 +32°C° 0 mm 5 mps 751 mmHg 29%
    17:00 +29°C° 0 mm 5 mps 751 mmHg 34%
    18:00 +28°C° 0 mm 5 mps 751 mmHg 40%
    19:00 +27°C° 0 mm 5 mps 751 mmHg 43%
    20:00 +27°C° 0 mm 5 mps 751 mmHg 47%
    21:00 +26°C° 0 mm 5 mps 751 mmHg 51%
    22:00 +26°C° 0 mm 6 mps 751 mmHg 53%
    23:00 +26°C° 0 mm 6 mps 750 mmHg 55%

    24 February, Saturday

    Time Temperature Precipitation Wind Pressure Humidity
    00:00 +24°C° 0 mm 7 mps 750 mmHg 57%
    01:00 +24°C° 0 mm 7 mps 749 mmHg 56%
    02:00 +24°C° 0 mm 7 mps 749 mmHg 56%
    03:00 +24°C° 0 mm 7 mps 749 mmHg 55%
    04:00 +24°C° 0 mm 7 mps 749 mmHg 56%
    05:00 +24°C° 0 mm 7 mps 750 mmHg 56%
    06:00 +24°C° 0 mm 6 mps 750 mmHg 57%
    07:00 +24°C° 0.1 mm 6 mps 751 mmHg 56%
    08:00 +26°C° 0.1 mm 6 mps 751 mmHg 55%
    09:00 +26°C° 0.1 mm 6 mps 751 mmHg 54%
    10:00 +28°C° 0 mm 7 mps 751 mmHg 47%
    11:00 +30°C° 0 mm 7 mps 750 mmHg 39%
    12:00 +33°C° 0 mm 7 mps 750 mmHg 32%
    13:00 +33°C° 0 mm 7 mps 749 mmHg 31%
    14:00 +33°C° 0 mm 7 mps 748 mmHg 29%
    15:00 +34°C° 0 mm 7 mps 747 mmHg 28%
    16:00 +33°C° 0.1 mm 7 mps 748 mmHg 31%
    17:00 +32°C° 0.1 mm 6 mps 748 mmHg 34%
    18:00 +30°C° 0.1 mm 6 mps 748 mmHg 37%
    19:00 +29°C° 0 mm 6 mps 748 mmHg 39%
    20:00 +28°C° 0 mm 5 mps 749 mmHg 41%
    21:00 +27°C° 0 mm 5 mps 749 mmHg 43%
    22:00 +27°C° 0 mm 6 mps 749 mmHg 46%
    23:00 +26°C° 0 mm 8 mps 749 mmHg 50%
    Show more